Weather reports worldwide

Advertisment
Lille, France (7015): temperature & dewpoint: 07.07.2020 06:00:00 - 13.07.2020 06:00:00 (CEST)Lille, France (7015): temperature 5cm: 07.07.2020 06:00:00 - 13.07.2020 06:00:00 (CEST)Lille, France (7015): temperature -20cm & temperature -100cm: 07.07.2020 06:00:00 - 13.07.2020 06:00:00 (CEST)Lille, France (7015): wind speed & gusts: 07.07.2020 06:00:00 - 13.07.2020 06:00:00 (CEST)Lille, France (7015): wind direction: 07.07.2020 06:00:00 - 13.07.2020 06:00:00 (CEST)Lille, France (7015): reduced air pressure: 07.07.2020 06:00:00 - 13.07.2020 06:00:00 (CEST)Lille, France (7015): visibility: 07.07.2020 06:00:00 - 13.07.2020 06:00:00 (CEST)Lille, France (7015): precipitation: 07.07.2020 06:00:00 - 13.07.2020 06:00:00 (CEST)
Date & Time tt [°C] td [°C] tt 5cm [°C] tt -20cm [°C] tt -100cm [°C] ff [km/h] ff [kn] fx [km/h] fx [kn] dd ppp [hPa] vv [km] rr [mm]
13.07.2020 06:00:00 12,3 8,8 10,6 18,2 17,2 5 3 9 5 NE 1025,1 33 0,0
13.07.2020 05:00:00 13,0 9,1 12,1 18,5 17,1 5 3 16 9 NE 1025,2 41 0,0
13.07.2020 04:00:00 13,4 9,1 12,7 18,9 17,1 10 6 16 9 NNE 1025,8 51 0,0
13.07.2020 03:00:00 14,0 8,8 13,0 19,3 17,1 11 6 18 10 NNE 1026,2 57 0,0
13.07.2020 02:00:00 14,4 8,6 13,6 19,8 17,1 13 7 23 12 N 1026,5 60 0,0
13.07.2020 01:00:00 15,2 8,9 14,4 20,4 17,1 16 8 25 14 NNE 1026,6 60 0,0
13.07.2020 00:00:00 15,8 9,5 15,1 21,0 17,1 17 9 27 15 N 1026,5 60 0,0
12.07.2020 23:00:00 16,8 10,2 15,9 21,7 17,1 16 9 26 14 N 1026,5 60 0,0
12.07.2020 22:00:00 18,4 9,7 17,5 22,3 17,1 10 6 22 12 NNE 1026,4 60 0,0
12.07.2020 21:00:00 20,1 8,1 20,7 23,0 17,1 15 8 24 13 NNE 1026,0 52 0,0
12.07.2020 20:00:00 20,9 8,2 23,1 23,5 17,1 12 7 29 15 NE 1026,1 42 0,0
12.07.2020 19:00:00 21,8 7,6 26,2 23,6 17,1 19 11 35 19 NNE 1026,2 38 0,0
12.07.2020 18:00:00 21,9 6,9 27,5 23,3 17,1 17 9 36 20 NNE 1026,6 34 0,0
12.07.2020 17:00:00 22,2 7,2 28,2 22,8 17,1 17 9 33 18 NE 1026,9 36 0,0
12.07.2020 16:00:00 21,8 7,2 27,4 22,0 17,1 10 6 33 18 E 1027,4 43 0,0
12.07.2020 15:00:00 21,3 7,5 27,6 21,0 17,1 17 9 31 17 NNE 1027,7 43 0,0
12.07.2020 14:00:00 20,9 7,5 26,6 19,8 17,1 13 7 32 17 NE 1028,1 52 0,0
12.07.2020 13:00:00 20,6 8,6 23,2 18,7 17,1 12 7 29 16 NE 1028,3 28 0,0
12.07.2020 12:00:00 18,6 7,7 22,0 17,8 17,1 12 6 29 15 NE 1028,7 59 0,0
12.07.2020 11:00:00 18,1 9,2 21,7 17,1 17,1 13 7 23 13 NE 1028,8 36 0,0
12.07.2020 10:00:00 16,7 9,1 19,8 16,6 17,1 12 7 24 13 ENE 1029,1 20 0,0
12.07.2020 09:00:00 15,7 10,9 18,4 16,4 17,1 13 7 19 11 NE 1028,9 35 0,0
12.07.2020 08:00:00 14,0 10,6 11,7 16,4 17,1 8 4 13 7 NE 1028,6 25 0,0
12.07.2020 07:00:00 11,6 10,3 6,2 16,6 17,1 2 1 8 5 SSW 1028,2 10 0,2
12.07.2020 06:00:00 10,0 9,1 5,3 17,1 17,1 6 3 10 5 N 1028,0 9 0,0
12.07.2020 05:00:00 10,6 8,9 7,8 17,5 17,1 0 0 10 5 N 1027,8 9 0,0
12.07.2020 04:00:00 11,8 9,9 10,2 17,9 17,1 10 5 16 8 N 1027,6 18 0,0
12.07.2020 03:00:00 12,2 9,9 10,9 18,3 17,1 5 3 13 7 ENE 1027,7 19 0,0
12.07.2020 02:00:00 12,4 9,8 9,6 18,8 17,1 9 5 14 8 N 1027,9 25 0,0
12.07.2020 01:00:00 12,6 9,2 9,8 19,3 17,1 9 5 12 7 NNW 1028,1 38 0,0
12.07.2020 00:00:00 13,5 9,2 11,8 19,9 17,1 8 4 15 8 NNW 1028,1 59 0,0
11.07.2020 23:00:00 14,3 8,7 12,9 20,7 17,1 9 5 20 11 NNW 1028,0 60 0,0
11.07.2020 22:00:00 15,6 8,3 14,8 21,4 17,1 14 8 26 14 NNW 1027,3 56 0,0
11.07.2020 21:00:00 17,0 7,1 17,9 22,0 17,1 16 9 31 17 NNW 1027,0 32 0,0
11.07.2020 20:00:00 18,3 6,8 21,8 22,4 17,1 19 10 36 19 NNW 1026,7 19 0,0
11.07.2020 19:00:00 19,4 6,8 22,2 22,5 17,1 20 11 39 21 NNW 1026,5 19 0,0
11.07.2020 18:00:00 20,0 7,4 25,7 22,2 17,1 24 13 44 24 NW 1026,3 22 0,0
11.07.2020 17:00:00 20,8 8,1 22,7 21,6 17,1 24 13 39 21 NNW 1026,1 25 0,0
11.07.2020 16:00:00 20,9 8,8 22,6 20,9 17,1 20 11 42 23 NW 1025,7 30 0,0
11.07.2020 15:00:00 19,9 9,5 22,1 20,2 17,1 21 11 36 19 WNW 1025,7 36 0,0
11.07.2020 14:00:00 20,0 9,3 22,0 19,3 17,1 18 10 40 21 NW 1025,7 36 0,0
11.07.2020 13:00:00 20,0 9,3 21,7 18,3 17,1 21 11 32 17 WNW 1025,6 49 0,0
11.07.2020 12:00:00 19,9 10,9 19,3 17,3 17,1 16 9 29 16 WNW 1025,5 55 0,0
11.07.2020 11:00:00 17,6 10,0 19,6 16,6 17,1 10 5 24 13 W 1025,2 48 0,0
11.07.2020 10:00:00 17,0 10,8 17,4 16,1 17,1 13 7 22 12 WNW 1025,0 60 0,0
11.07.2020 09:00:00 15,2 11,2 17,1 15,8 17,1 8 4 16 9 W 1024,6 29 0,0
11.07.2020 08:00:00 12,5 10,0 10,8 15,8 17,1 7 4 12 6 W 1024,3 20 0,0
11.07.2020 07:00:00 10,4 9,3 6,1 16,0 17,1 5 3 6 4 SW 1023,7 14 0,0
11.07.2020 06:00:00 9,6 8,5 5,9 16,4 17,1 4 2 7 4 SW 1023,4 11 0,0
11.07.2020 05:00:00 10,3 9,1 6,0 16,8 17,1 3 1 7 4 SW 1022,9 20 0,0
11.07.2020 04:00:00 10,3 8,7 6,0 17,2 17,1 3 2 9 5 SW 1022,7 24 0,0
11.07.2020 03:00:00 11,1 8,8 6,8 17,7 17,1 7 4 9 5 WSW 1022,6 22 0,0
11.07.2020 02:00:00 11,8 9,0 7,5 18,2 17,1 3 2 8 4 SSW 1022,3 43 0,0
11.07.2020 01:00:00 13,1 9,3 9,4 18,6 17,1 5 3 13 7 NW 1022,0 49 0,0
11.07.2020 00:00:00 14,5 9,3 13,4 19,1 17,1 10 5 17 9 NW 1021,5 60 0,0
10.07.2020 23:00:00 15,5 8,7 14,5 19,5 17,1 8 4 15 8 NW 1020,9 60 0,0
10.07.2020 22:00:00 16,2 8,2 15,2 20,0 17,0 9 5 21 11 NNW 1020,2 60 0,0
10.07.2020 21:00:00 16,9 8,6 17,1 20,5 17,1 10 5 27 14 NNW 1019,8 55 0,0
10.07.2020 20:00:00 17,6 8,7 18,4 20,9 17,1 11 6 29 15 N 1019,3 54 0,0
10.07.2020 19:00:00 18,2 8,5 20,1 21,1 17,1 18 10 35 19 NW 1019,0 55 0,0
10.07.2020 18:00:00 19,1 9,3 21,3 21,0 17,1 18 10 39 21 NW 1018,3 46 0,0
10.07.2020 17:00:00 20,2 9,1 21,7 20,4 17,1 21 11 38 20 NW 1018,0 28 0,0
10.07.2020 16:00:00 19,0 9,7 21,9 19,8 17,1 22 12 43 23 NW 1017,7 23 0,0
10.07.2020 15:00:00 18,5 10,6 20,8 19,3 17,0 22 12 44 24 NNW 1017,4 24 0,0
10.07.2020 14:00:00 16,6 12,1 17,3 19,1 17,1 24 13 39 21 NW 1017,0 18 0,0
10.07.2020 13:00:00 16,3 13,0 15,9 18,9 17,0 26 14 41 22 NW 1016,2 16 0,4
10.07.2020 12:00:00 16,9 14,2 15,5 18,7 17,1 12 7 36 20 NW 1015,4 47 0,8
10.07.2020 11:00:00 18,4 11,7 19,3 18,3 17,0 20 11 34 18 NW 1014,2 45 0,0
10.07.2020 10:00:00 17,5 13,0 16,1 18,2 17,0 21 11 36 19 NW 1013,5 44 0,0
10.07.2020 09:00:00 16,3 14,1 15,7 18,2 17,0 20 11 30 16 WNW 1012,6 46 0,0
10.07.2020 08:00:00 15,7 14,2 15,3 18,3 17,0 18 10 33 18 W 1011,9 34 0,0
10.07.2020 07:00:00 15,8 14,8 15,6 18,4 17,0 23 13 35 19 WNW 1011,2 5 0,4
10.07.2020 06:00:00 16,2 15,4 15,7 18,5 17,0 18 10 34 18 WSW 1010,4 9 0,2
10.07.2020 05:00:00 16,4 14,4 15,6 18,7 17,0 22 12 37 20 SW 1010,5 52 0,0
10.07.2020 04:00:00 16,5 14,0 16,1 18,9 17,1 24 13 42 23 WSW 1010,9 51 0,0
10.07.2020 03:00:00 17,0 13,5 16,9 19,1 17,1 24 13 39 21 WSW 1011,1 53 0,0
10.07.2020 02:00:00 17,1 13,6 16,6 19,4 17,0 22 12 35 19 SW 1011,0 58 0,0
10.07.2020 01:00:00 17,1 14,0 16,5 19,8 17,1 16 9 26 14 SW 1011,5 58 0,0
10.07.2020 00:00:00 17,1 13,8 16,6 20,3 17,0 13 7 24 13 SW 1011,7 31 0,0
09.07.2020 23:00:00 17,9 14,0 17,3 20,8 17,1 11 6 22 12 SW 1011,8 60 0,0
09.07.2020 22:00:00 18,4 14,5 18,1 21,4 17,0 20 11 35 19 W 1011,7 60 0,0
09.07.2020 21:00:00 20,4 14,3 20,0 21,9 17,0 20 11 39 21 W 1011,9 60 0,0
09.07.2020 20:00:00 23,5 13,9 24,7 22,0 17,1 29 16 48 26 WSW 1012,1 19 0,0
09.07.2020 19:00:00 25,1 13,9 28,1 21,7 17,0 26 14 39 21 W 1011,9 21 0,0
09.07.2020 18:00:00 25,4 14,2 28,6 20,9 17,0 22 12 46 25 WSW 1012,4 22 0,0
09.07.2020 17:00:00 25,0 14,8 25,0 20,0 17,1 27 14 44 24 W 1013,0 29 0,0
09.07.2020 16:00:00 23,8 13,9 25,1 19,5 17,0 26 14 52 28 W 1013,6 30 0,0
09.07.2020 15:00:00 23,5 13,7 23,4 19,1 17,0 31 17 49 26 WSW 1014,0 31 0,0
09.07.2020 14:00:00 22,0 13,9 22,4 18,9 17,1 25 13 45 24 WSW 1014,3 34 0,0
09.07.2020 13:00:00 21,4 14,1 22,6 18,5 17,1 29 15 45 24 WSW 1014,5 36 0,0
09.07.2020 12:00:00 20,9 14,3 20,1 18,0 17,0 24 13 43 23 SW 1014,6 41 0,0
09.07.2020 11:00:00 19,0 14,3 19,4 17,8 17,1 19 10 33 18 SW 1014,9 41 0,0
09.07.2020 10:00:00 18,2 13,9 19,1 17,5 17,0 23 13 37 20 WSW 1014,9 42 0,0
09.07.2020 09:00:00 17,5 14,8 16,8 17,4 17,1 16 8 30 16 SW 1014,6 41 0,0
09.07.2020 08:00:00 16,8 15,3 16,4 17,4 17,0 19 10 31 17 WSW 1014,9 17 0,0
09.07.2020 07:00:00 16,5 15,0 16,3 17,4 17,1 16 9 27 15 SSW 1014,7 43 0,0
09.07.2020 06:00:00 16,3 14,7 15,9 17,4 17,1 18 10 29 16 SW 1015,2 54 0,0
09.07.2020 05:00:00 16,3 14,5 16,2 17,5 17,1 20 11 38 20 WSW 1015,6 54 0,0
09.07.2020 04:00:00 16,4 14,6 16,1 17,6 17,1 24 13 40 22 WSW 1015,4 51 0,0
09.07.2020 03:00:00 16,8 14,8 16,7 17,7 17,1 17 9 36 19 WSW 1015,6 60 0,0
09.07.2020 02:00:00 16,8 15,1 16,6 17,8 17,1 16 9 33 18 SW 1015,8 45 0,0
09.07.2020 01:00:00 16,8 15,1 16,6 17,9 17,1 16 9 26 14 SW 1016,1 28 0,0
09.07.2020 00:00:00 16,8 15,0 16,7 18,0 17,0 16 9 32 18 SW 1016,3 29 0,0
08.07.2020 23:00:00 17,0 14,8 16,9 18,1 17,1 16 9 30 16 SW 1016,5 29 0,0
08.07.2020 22:00:00 17,2 14,8 17,1 18,3 17,1 20 11 32 17 WSW 1016,3 30 0,0
08.07.2020 21:00:00 17,4 15,0 17,4 18,4 17,1 16 8 32 18 WSW 1016,3 30 0,0
08.07.2020 20:00:00 17,5 14,9 17,5 18,6 17,1 22 12 36 19 WSW 1016,4 35 0,0
08.07.2020 19:00:00 18,2 14,9 18,1 18,6 17,1 22 12 33 18 W 1016,2 20 0,0
08.07.2020 18:00:00 18,4 15,1 18,2 18,7 17,0 16 9 30 16 W 1016,3 39 0,0
08.07.2020 17:00:00 18,4 15,5 18,3 18,6 17,1 17 9 30 16 WSW 1016,6 44 0,0
08.07.2020 16:00:00 18,1 15,4 18,3 18,4 17,1 16 9 29 16 W 1016,5 51 0,0
08.07.2020 15:00:00 17,5 15,1 17,4 18,4 17,0 19 10 34 18 W 1016,5 20 0,0
08.07.2020 14:00:00 17,5 15,3 17,3 18,2 17,0 21 11 37 20 W 1016,2 43 0,0
08.07.2020 13:00:00 16,7 15,9 16,5 17,9 17,1 23 12 36 19 WSW 1016,2 7 0,4
08.07.2020 12:00:00 16,2 15,7 16,3 17,6 17,1 19 10 29 16 WSW 1016,1 6 0,4
08.07.2020 11:00:00 15,5 15,3 14,9 17,5 17,1 14 8 26 14 SSW 1016,0 5 0,6
08.07.2020 10:00:00 14,5 14,3 14,1 17,5 17,1 11 6 22 12 SSW 1015,9 3,1 0,4
08.07.2020 09:00:00 13,8 13,6 13,6 17,5 17,1 13 7 25 13 S 1015,7 2,9 0,2
08.07.2020 08:00:00 13,6 13,3 13,3 17,7 17,1 10 6 21 11 SSW 1015,7 2,4 0,2
08.07.2020 07:00:00 13,5 13,0 13,1 17,8 17,1 12 6 18 10 S 1015,7 2,0 0,6
08.07.2020 06:00:00 14,1 12,3 13,3 18,0 17,1 11 6 17 9 S 1016,0 5 0,0
08.07.2020 05:00:00 14,4 11,0 14,4 18,1 17,1 10 5 16 8 S 1016,3 40 0,0
08.07.2020 04:00:00 14,5 11,1 14,2 18,3 17,1 10 5 19 11 SW 1016,8 43 0,0
08.07.2020 03:00:00 14,5 10,5 14,2 18,6 17,1 9 5 19 10 SW 1017,5 46 0,0
08.07.2020 02:00:00 14,3 9,7 14,0 18,9 17,1 11 6 18 10 SW 1018,0 58 0,0
08.07.2020 01:00:00 14,5 9,1 14,1 19,3 17,1 11 6 25 14 WSW 1018,1 60 0,0
08.07.2020 00:00:00 15,6 8,1 15,4 19,7 17,1 21 11 34 18 W 1018,5 60 0,0
07.07.2020 23:00:00 16,2 8,4 16,0 20,1 17,1 12 7 32 18 WSW 1018,5 60 0,0
07.07.2020 22:00:00 17,0 7,9 16,8 20,5 17,1 16 9 34 19 W 1018,8 58 0,0
07.07.2020 21:00:00 17,9 7,0 18,0 21,0 17,1 20 11 36 19 W 1018,7 59 0,0
07.07.2020 20:00:00 19,3 7,7 19,6 21,4 17,1 24 13 39 21 W 1018,9 42 0,0
07.07.2020 19:00:00 20,5 8,2 22,1 21,6 17,1 26 14 42 23 W 1018,6 45 0,0
07.07.2020 18:00:00 21,5 8,7 23,3 21,5 17,1 26 14 43 23 W 1019,0 32 0,0
07.07.2020 17:00:00 22,1 8,9 23,5 21,0 17,1 19 11 34 18 WSW 1019,3 51 0,0
07.07.2020 16:00:00 21,7 8,2 23,1 20,5 17,1 16 9 30 16 WSW 1019,7 48 0,0
07.07.2020 15:00:00 21,1 8,0 23,4 19,8 17,1 15 8 34 18 W 1020,0 50 0,0
07.07.2020 14:00:00 21,4 7,6 21,8 19,0 17,1 13 7 26 14 WSW 1020,5 30 0,0
07.07.2020 13:00:00 19,6 7,7 22,0 18,3 17,1 13 7 29 15 W 1021,1 19 0,0
07.07.2020 12:00:00 19,4 7,5 22,5 17,4 17,1 13 7 24 13 WSW 1021,6 53 0,0
07.07.2020 11:00:00 18,7 7,2 21,6 16,6 17,1 7 4 16 9 S 1021,7 42 0,0
07.07.2020 10:00:00 17,2 8,6 19,9 16,0 17,1 7 4 15 8 WNW 1021,9 25 0,0
07.07.2020 09:00:00 15,7 10,2 18,2 15,6 17,1 8 4 16 9 NW 1021,8 47 0,0
07.07.2020 08:00:00 12,9 11,1 11,0 15,5 17,1 7 4 11 6 W 1021,8 15 0,0
07.07.2020 07:00:00 11,3 10,8 7,2 15,8 17,1 6 3 7 4 WSW 1022,1 11 0,0
07.07.2020 06:00:00 10,2 9,6 6,1 16,1 17,2 3 2 5 3 S 1021,9 0,6 0,0

tt = temperature
td = dewpoint
tt 5cm = temperature 5cm
tt -20cm = temperature -20cm
tt -100cm = temperature -100cm
ff = wind speed
fx = gusts
dd = wind direction
ppp = reduced air pressure
vv = visibility
rr = precipitation

Next stations